Location: Obersdorf
(47.4079°N, 10.2781°E)
Time: 20:19:41
(UTC+01:00)

AO-85 - Visible Passes

Search period start: 07 December 2021 00:00
Search period end: 17 December 2021 00:00
Orbit: 521 x 762 km, 64.8° (Epoch: 12 March)

Date Brightness Start Highest point End Pass type
(mag) Time Alt. Az. Time Alt. Az. Time Alt. Az.
07 Dec ? 17:25:05 10° SW 17:30:10 59° NW 17:35:26 10° NNE visible
07 Dec ? 19:08:02 10° WNW 19:11:41 19° NNW 19:13:20 16° N visible
08 Dec ? 17:50:05 10° WSW 17:54:48 34° NW 17:59:31 11° NNE visible
08 Dec ? 19:34:04 10° NW 19:36:49 14° NNW 19:37:06 14° NNW visible
09 Dec ? 18:15:35 10° W 18:19:39 22° NNW 18:23:16 12° NNE visible
09 Dec ? 20:00:06 10° NNW 20:00:51 11° NNW 20:00:51 11° NNW visible
10 Dec ? 16:57:58 10° WSW 17:02:55 44° NW 17:08:00 10° NNE visible
10 Dec ? 18:41:29 10° WNW 18:44:42 16° NNW 18:46:59 13° N visible
11 Dec ? 17:23:14 10° W 17:27:40 27° NW 17:32:09 10° NNE visible
11 Dec ? 19:07:35 10° NW 19:09:53 13° N 19:10:41 12° N visible
12 Dec ? 17:48:57 10° WNW 17:52:36 19° NNW 17:56:17 10° NNE visible
12 Dec ? 19:33:22 10° NNW 19:34:23 11° N 19:34:23 11° N visible
13 Dec ? 18:15:00 10° NW 18:17:43 14° NNW 18:20:27 10° NNE visible
14 Dec ? 16:56:30 10° W 17:00:33 22° NNW 17:04:40 10° NNE visible
14 Dec ? 18:41:01 10° NNW 18:42:58 12° N 18:44:10 11° N visible
15 Dec ? 17:22:24 10° WNW 17:25:36 16° NNW 17:28:48 10° NNE visible
15 Dec ? 19:06:23 10° NNW 19:07:50 12° N 19:07:50 12° N visible
16 Dec ? 17:48:29 10° NW 17:50:47 13° N 17:53:04 10° NNE visible
16 Dec ? 19:30:55 10° NNW 19:31:31 11° N 19:31:31 11° N visible
